Weather History for Gulkana, AK

Change the Weather History Date:

Thursday, October 4, 2012

  Actual Average Record
Temperature  
Mean Temperature 44 °F -  
Max Temperature 54 °F 42 °F 61 °F (2001)
Min Temperature 35 °F 25 °F 8 °F (1974)
Degree Days  
Heating Degree Days 20    
Moisture  
Dew Point 39 °F    
Average Humidity 68    
Maximum Humidity 77    
Minimum Humidity 57    
Precipitation  
Precipitation 0.00 in - - ()
Sea Level Pressure  
Sea Level Pressure 30.10 in    
Wind  
Wind Speed 17 mph (SSE)    
Max Wind Speed 23 mph    
Max Gust Speed 33 mph    
Visibility 10 miles    
Events Rain    
Averages and records for this station are not official NWS values.
T = Trace of Precipitation, MM = Missing Value Source: NWS Daily Summary

Daily Weather History Graph

Daily Weather History Graph

Search for Another Location

Airport:

Trip Planner

Search our weather history database for the weather conditions in past years. The results will help you decide how hot, cold, wet, or windy it might be!

Date:

Astronomy

Oct. 04, 2012 Rise Set
Actual Time 7:58 AM AKDT 7:00 PM AKDT
Civil Twilight 7:14 AM AKDT 7:44 PM AKDT
Nautical Twilight 6:22 AM AKDT 8:36 PM AKDT
Astronomical Twilight 5:27 AM AKDT 9:30 PM AKDT
Moon 8:10 PM AKDT (10/4) 1:55 PM AKDT (10/4)
Length of Visible Light 12h 30m
Length of Day
11h 01m
Waning Gibbous, 81% of the Moon is Illuminated
Oct 4
Waning Gibbous
Oct 7
Last Quarter
Oct 15
New
Oct 21
First Quarter
Oct 29
Full

Hourly Weather History & Observations

Time (AKDT) Temp. Windchill Dew Point Humidity Pressure Visibility Wind Dir Wind Speed Gust Speed Precip Events Conditions
12:53 AM 45.0 °F 36.9 °F 33.1 °F 63% 30.16 in 10.0 mi SSE 20.7 mph 27.6 mph N/A   Partly Cloudy
1:53 AM 45.0 °F 38.5 °F 34.0 °F 65% 30.16 in 10.0 mi SSE 13.8 mph 21.9 mph 0.00 in Rain Light Rain
2:53 AM 44.1 °F 37.4 °F 35.1 °F 71% 30.16 in 10.0 mi SSE 13.8 mph - 0.00 in   Mostly Cloudy
3:53 AM 43.0 °F 37.2 °F 34.0 °F 71% 30.13 in 10.0 mi SSE 10.4 mph 19.6 mph N/A   Clear
4:53 AM 46.0 °F 38.5 °F 35.1 °F 66% 30.13 in 10.0 mi South 19.6 mph 26.5 mph N/A   Scattered Clouds
5:53 AM 45.0 °F 37.1 °F 36.0 °F 71% 30.12 in 10.0 mi SSE 19.6 mph 27.6 mph N/A   Overcast
6:53 AM 46.0 °F 38.5 °F 37.0 °F 71% 30.12 in 10.0 mi SSE 19.6 mph 26.5 mph N/A   Overcast
7:53 AM 46.9 °F - 37.0 °F 68% 30.09 in 10.0 mi SSE 18.4 mph 29.9 mph N/A   Overcast
8:53 AM 48.0 °F - 37.0 °F 66% 30.07 in 10.0 mi SSE 23.0 mph 28.8 mph N/A   Overcast
9:53 AM 48.0 °F - 37.9 °F 68% 30.07 in 10.0 mi South 16.1 mph 27.6 mph N/A   Overcast
10:53 AM 50.0 °F - 37.9 °F 63% 30.07 in 10.0 mi South 17.3 mph 26.5 mph N/A   Overcast
11:53 AM 51.1 °F - 39.0 °F 63% 30.08 in 10.0 mi South 18.4 mph 26.5 mph N/A   Overcast
12:53 PM 52.0 °F - 39.9 °F 63% 30.07 in 10.0 mi SSE 16.1 mph - N/A   Overcast
1:53 PM 53.1 °F - 42.1 °F 66% 30.08 in 10.0 mi SSE 17.3 mph 26.5 mph N/A   Overcast
2:53 PM 52.0 °F - 42.1 °F 69% 30.08 in 10.0 mi South 18.4 mph 27.6 mph N/A   Overcast
3:53 PM 53.1 °F - 42.1 °F 66% 30.08 in 10.0 mi South 17.3 mph 26.5 mph N/A   Overcast
4:53 PM 53.1 °F - 43.0 °F 69% 30.06 in 10.0 mi SSE 23.0 mph 32.2 mph N/A   Mostly Cloudy
5:53 PM 53.1 °F - 43.0 °F 69% 30.06 in 10.0 mi SSE 15.0 mph 24.2 mph N/A   Mostly Cloudy
6:53 PM 52.0 °F - 43.0 °F 71% 30.09 in 10.0 mi SSE 18.4 mph 25.3 mph N/A   Mostly Cloudy
7:53 PM 52.0 °F - 43.0 °F 71% 30.09 in 10.0 mi SSE 18.4 mph 24.2 mph N/A   Overcast
8:53 PM 52.0 °F - 43.0 °F 71% 30.11 in 10.0 mi SSE 18.4 mph 26.5 mph N/A   Overcast
9:26 PM 50.0 °F - 42.8 °F 76% 30.09 in 10.0 mi South 15.0 mph 25.3 mph N/A   Overcast
9:53 PM 50.0 °F - 43.0 °F 77% 30.12 in 10.0 mi South 13.8 mph - N/A   Partly Cloudy
10:53 PM 51.1 °F - 43.0 °F 74% 30.12 in 10.0 mi South 12.7 mph - N/A   Scattered Clouds
11:53 PM 51.1 °F - 43.0 °F 74% 30.13 in 10.0 mi SSE 23.0 mph 33.4 mph N/A   Mostly Cloudy